Date String (YYYY-MM-DD hh:mm:ss) UTC,Instrument flags,absolute air pressure of the measurement (hPa),sample flow rate (lpm),inlet stack bypass flow (lpm),air temperature of the measurement (°C),ambient temperature measured by the external sensor (°C),aerosol sample conditioner tube jacket temperature (°C),OPC LED temperature (°C),internal box temperature (°C),relative humidity of the measurement (%),span deviation,mass concentration of particles derived from Lorenz-Mie calculation of OPC scattering (μg/m³),mass concentration of particles derived from Lorenz-Mie calculation of OPC scattering (μg/m³),mass concentration of particles derived from Lorenz-Mie calculation of OPC scattering (μg/m³)
DateTimeUTC,F1_M11,P_M11,Q1_M11,Q2_M11,T1_M11,T2_M11,T3_M11,T4_M11,T5_M11,U1_M11,ZSPAN_M11,X2_M11,X0_M11,X1_M11
2023-09-30 20:00:00,SystemResetWarning,0826.9,5.00,000.00,028.1,026.2,000.0,036.5,029.9,20.0,0000.0,0007.01,0019.21,0005.41
2023-09-30 20:01:00,SystemResetWarning,0826.9,5.00,000.00,028.1,026.5,000.0,036.6,030.0,19.9,0000.0,0007.00,0019.04,0005.43
2023-09-30 20:02:00,SystemResetWarning,0826.9,5.00,000.00,028.2,026.8,000.0,036.6,030.1,19.7,0000.0,0006.98,0018.02,0005.43
2023-09-30 20:03:00,SystemResetWarning,0826.9,5.00,000.00,028.2,027.1,000.0,036.6,030.1,19.6,0000.0,0006.93,0017.56,0005.43
2023-09-30 20:04:00,SystemResetWarning,0826.9,4.99,000.00,028.3,026.9,000.0,036.6,030.2,19.6,0000.0,0006.95,0016.91,0005.45
2023-09-30 20:05:00,SystemResetWarning,0826.8,4.98,000.00,028.2,025.4,000.0,036.6,030.0,20.1,0000.0,0006.89,0016.34,0005.44
2023-09-30 20:06:00,SystemResetWarning,0826.8,5.01,000.00,028.2,024.5,000.0,036.5,029.8,20.4,0000.0,0006.88,0014.98,0005.45
2023-09-30 20:07:00,SystemResetWarning,0826.8,5.00,000.00,028.1,024.7,000.0,036.5,029.7,20.6,0000.0,0006.93,0015.17,0005.47
2023-09-30 20:08:00,SystemResetWarning,0826.8,4.99,000.00,028.1,025.1,000.0,036.5,029.7,20.7,0000.0,0006.93,0014.89,0005.47
2023-09-30 20:09:00,SystemResetWarning,0826.8,5.00,000.00,028.1,025.5,000.0,036.5,029.7,20.9,0000.0,0006.94,0014.31,0005.47
2023-09-30 20:10:00,SystemResetWarning,0826.7,5.01,000.00,028.1,025.9,000.0,036.5,029.8,20.7,0000.0,0006.88,0014.08,0005.48
2023-09-30 20:11:00,SystemResetWarning,0826.7,5.00,000.00,028.1,026.3,000.0,036.5,029.9,20.7,0000.0,0006.91,0014.33,0005.50
2023-09-30 20:12:00,SystemResetWarning,0826.8,4.99,000.00,028.1,026.6,000.0,036.6,030.0,20.5,0000.0,0006.96,0015.02,0005.51
2023-09-30 20:13:00,SystemResetWarning,0826.8,5.00,000.00,028.2,026.9,000.0,036.6,030.1,20.5,0000.0,0006.96,0015.57,0005.50
2023-09-30 20:14:00,SystemResetWarning,0826.8,4.99,000.00,028.2,026.2,000.0,036.6,030.0,20.4,0000.1,0007.03,0016.12,0005.51
2023-09-30 20:15:00,SystemResetWarning,0826.7,5.00,000.00,028.1,024.6,000.0,036.5,029.8,20.0,0000.2,0007.06,0016.60,0005.51
2023-09-30 20:16:00,SystemResetWarning,0826.6,5.02,000.00,028.1,024.4,000.0,036.5,029.7,20.0,0000.5,0007.10,0016.82,0005.51
2023-09-30 20:17:00,SystemResetWarning,0826.6,4.99,000.00,028.0,024.7,000.0,036.4,029.6,20.9,0000.4,0007.14,0017.41,0005.51
2023-09-30 20:18:00,SystemResetWarning,0826.6,5.00,000.00,028.0,025.1,000.0,036.4,029.6,20.9,0000.3,0007.19,0017.44,0005.52
2023-09-30 20:19:00,SystemResetWarning,0826.5,5.00,000.00,028.0,025.6,000.0,036.5,029.7,20.7,-000.1,0007.23,0017.98,0005.55
2023-09-30 20:20:00,SystemResetWarning,0826.6,5.01,000.00,028.0,026.0,000.0,036.5,029.8,20.6,0000.0,0007.18,0018.44,0005.55
2023-09-30 20:21:00,SystemResetWarning,0826.6,4.99,000.00,028.0,026.4,000.0,036.5,029.9,20.6,0000.9,0007.27,0018.90,0005.56
2023-09-30 20:22:00,SystemResetWarning,0826.6,4.99,000.00,028.1,026.7,000.0,036.5,030.0,20.4,0000.9,0007.26,0018.98,0005.57
2023-09-30 20:23:00,SystemResetWarning,0826.6,5.00,000.00,028.2,026.9,000.0,036.5,030.1,19.9,0001.8,0007.22,0018.32,0005.57
2023-09-30 20:24:00,SystemResetWarning,0826.6,5.00,000.00,028.2,027.0,000.0,036.6,030.1,20.1,0002.1,0007.18,0018.25,0005.60
2023-09-30 20:25:00,SystemResetWarning,0826.6,4.99,000.00,028.2,025.7,000.0,036.5,030.0,19.8,0001.5,0007.14,0017.76,0005.60
2023-09-30 20:26:00,SystemResetWarning,0826.6,5.00,000.00,028.1,024.5,000.0,036.5,029.8,20.0,0000.0,0007.13,0017.60,0005.60
2023-09-30 20:27:00,SystemResetWarning,0826.6,5.01,000.00,028.1,024.6,000.0,036.4,029.7,20.2,0000.0,0007.15,0017.87,0005.60
2023-09-30 20:28:00,SystemResetWarning,0826.5,5.00,000.00,028.0,025.0,000.0,036.4,029.7,19.8,0000.0,0007.18,0017.97,0005.62
2023-09-30 20:29:00,SystemResetWarning,0826.4,4.99,000.00,028.0,025.4,000.0,036.4,029.7,20.0,0000.0,0007.10,0017.82,0005.63
2023-09-30 20:30:00,SystemResetWarning,0826.4,5.00,000.00,028.0,025.8,000.0,036.5,029.8,19.6,0000.3,0007.04,0017.58,0005.62
2023-09-30 20:31:00,SystemResetWarning,0826.4,5.01,000.00,028.0,026.2,000.0,036.5,029.8,19.5,0002.3,0007.08,0017.81,0005.62
2023-09-30 20:32:00,SystemResetWarning,0826.4,5.00,000.00,028.1,026.5,000.0,036.5,029.9,19.5,0001.1,0007.05,0018.00,0005.61
2023-09-30 20:33:00,SystemResetWarning,0826.4,5.00,000.00,028.1,026.8,000.0,036.5,030.0,19.3,0000.4,0007.01,0018.65,0005.62
2023-09-30 20:34:00,SystemResetWarning,0826.4,5.00,000.00,028.2,027.0,000.0,036.5,030.1,19.2,0000.0,0007.01,0018.74,0005.63
2023-09-30 20:35:00,SystemResetWarning,0826.4,4.98,000.00,028.2,025.9,000.0,036.5,030.0,18.5,0000.0,0007.02,0018.14,0005.62
2023-09-30 20:36:00,SystemResetWarning,0826.3,5.00,000.00,028.1,024.5,000.0,036.4,029.8,18.1,0000.0,0007.03,0019.02,0005.62
2023-09-30 20:37:00,SystemResetWarning,0826.3,5.01,000.00,028.1,024.5,000.0,036.4,029.7,18.2,0001.7,0007.05,0020.04,0005.62
2023-09-30 20:38:00,SystemResetWarning,0826.3,5.01,000.00,028.0,024.8,000.0,036.4,029.6,18.2,0001.8,0007.03,0020.12,0005.62
2023-09-30 20:39:00,SystemResetWarning,0826.3,4.99,000.00,028.0,025.2,000.0,036.4,029.6,18.0,0000.0,0007.05,0019.95,0005.61
2023-09-30 20:40:00,SystemResetWarning,0826.3,5.00,000.00,028.0,025.7,000.0,036.4,029.7,18.3,0001.5,0007.05,0019.87,0005.59
2023-09-30 20:41:00,SystemResetWarning,0826.3,5.01,000.00,028.0,026.1,000.0,036.5,029.8,19.6,0002.4,0007.08,0020.36,0005.59
2023-09-30 20:42:00,SystemResetWarning,0826.3,5.00,000.00,028.1,026.4,000.0,036.5,029.9,20.6,0000.0,0007.08,0021.13,0005.60
2023-09-30 20:43:00,SystemResetWarning,0826.2,5.00,000.00,028.1,026.7,000.0,036.5,030.0,20.1,0000.0,0007.17,0021.33,0005.61
2023-09-30 20:44:00,SystemResetWarning,0826.2,5.00,000.00,028.2,027.0,000.0,036.5,030.1,19.8,0000.0,0007.24,0021.18,0005.63
2023-09-30 20:45:00,SystemResetWarning,0826.3,4.98,000.00,028.2,026.1,000.0,036.5,030.0,18.9,0000.2,0007.27,0021.82,0005.62
2023-09-30 20:46:00,SystemResetWarning,0826.2,5.00,000.00,028.1,024.6,000.0,036.4,029.8,18.6,0000.5,0007.25,0021.65,0005.61
2023-09-30 20:47:00,SystemResetWarning,0826.2,5.01,000.00,028.1,024.5,000.0,036.4,029.7,19.3,0000.0,0007.23,0020.52,0005.60
2023-09-30 20:48:00,SystemResetWarning,0826.2,4.99,000.00,028.0,024.8,000.0,036.4,029.6,20.0,0000.0,0007.25,0019.72,0005.60
2023-09-30 20:49:00,SystemResetWarning,0826.2,5.00,000.00,028.0,025.2,000.0,036.4,029.6,20.3,0000.0,0007.26,0019.77,0005.61
2023-09-30 20:50:00,SystemResetWarning,0826.1,5.01,000.00,028.0,025.6,000.0,036.4,029.7,20.2,0000.0,0007.22,0020.34,0005.59
2023-09-30 20:51:00,SystemResetWarning,0826.1,4.99,000.00,028.0,026.0,000.0,036.4,029.8,19.5,0000.0,0007.19,0020.78,0005.60
2023-09-30 20:52:00,SystemResetWarning,0826.0,5.00,000.00,028.1,026.4,000.0,036.4,029.9,20.0,0000.0,0007.16,0020.82,0005.59
2023-09-30 20:53:00,SystemResetWarning,0826.0,5.00,000.00,028.1,026.7,000.0,036.5,030.0,20.2,0000.0,0007.16,0019.89,0005.58
2023-09-30 20:54:00,SystemResetWarning,0826.0,5.00,000.00,028.2,027.0,000.0,036.5,030.1,20.7,0000.0,0007.05,0019.02,0005.57
2023-09-30 20:55:00,SystemResetWarning,0826.0,4.99,000.00,028.2,026.3,000.0,036.5,030.1,20.3,0000.0,0006.95,0018.90,0005.55
2023-09-30 20:56:00,SystemResetWarning,0826.0,5.01,000.00,028.1,024.7,000.0,036.4,029.8,20.0,0000.0,0006.91,0019.88,0005.54
2023-09-30 20:57:00,SystemResetWarning,0825.9,5.01,000.00,028.1,024.4,000.0,036.4,029.7,19.8,0000.0,0006.94,0019.93,0005.54
2023-09-30 20:58:00,SystemResetWarning,0825.9,5.01,000.00,028.0,024.7,000.0,036.4,029.6,20.0,0000.0,0007.04,0020.85,0005.54
2023-09-30 20:59:00,SystemResetWarning,0825.9,5.00,000.00,028.0,025.1,000.0,036.4,029.6,20.7,0000.0,0007.06,0020.52,0005.55
